TimeCST,TemperatureF,Dew PointF,Humidity,Sea Level PressureIn,VisibilityMPH,Wind Direction,Wind SpeedMPH,Gust SpeedMPH,PrecipitationIn,Events,Conditions,WindDirDegrees,DateUTC
12:53 AM,45.0,26.1,48,29.72,10.0,SW,5.8,-,N/A,,Clear,230,2012-02-22 06:53:00
1:53 AM,44.1,26.1,49,29.70,10.0,WSW,5.8,-,N/A,,Clear,240,2012-02-22 07:53:00
2:53 AM,43.0,26.1,51,29.67,10.0,SW,5.8,-,N/A,,Clear,230,2012-02-22 08:53:00
3:53 AM,37.0,26.1,65,29.65,10.0,Calm,Calm,-,N/A,,Clear,0,2012-02-22 09:53:00
4:53 AM,42.1,26.1,53,29.63,10.0,SSW,4.6,-,N/A,,Clear,210,2012-02-22 10:53:00
6:53 AM,42.1,28.9,60,29.63,10.0,West,4.6,-,N/A,,Clear,260,2012-02-22 12:53:00
7:53 AM,43.0,30.0,60,29.63,10.0,West,10.4,-,N/A,,Clear,270,2012-02-22 13:53:00
8:53 AM,44.1,30.0,58,29.64,10.0,WNW,8.1,-,N/A,,Partly Cloudy,290,2012-02-22 14:53:00
9:53 AM,48.0,30.0,50,29.62,10.0,West,6.9,-,N/A,,Partly Cloudy,280,2012-02-22 15:53:00
10:53 AM,53.1,32.0,45,29.60,10.0,West,6.9,-,N/A,,Clear,270,2012-02-22 16:53:00
11:53 AM,57.0,32.0,39,29.57,10.0,Calm,Calm,-,N/A,,Clear,0,2012-02-22 17:53:00
12:53 PM,57.9,33.1,39,29.56,-9999.0,Calm,Calm,-,N/A,,Clear,0,2012-02-22 18:53:00
1:53 PM,62.1,33.1,34,29.52,10.0,Calm,Calm,-,N/A,,Scattered Clouds,0,2012-02-22 19:53:00
2:53 PM,64.9,33.1,31,29.50,10.0,NNW,5.8,-,N/A,,Clear,340,2012-02-22 20:53:00
3:53 PM,63.0,33.1,33,29.48,10.0,West,5.8,-,N/A,,Clear,260,2012-02-22 21:53:00
4:53 PM,64.9,33.1,31,29.46,10.0,WNW,5.8,-,N/A,,Clear,290,2012-02-22 22:53:00
5:53 PM,62.1,34.0,35,29.47,10.0,WNW,6.9,-,N/A,,Clear,300,2012-02-22 23:53:00
6:53 PM,57.0,36.0,45,29.45,10.0,Calm,Calm,-,N/A,,Clear,0,2012-02-23 00:53:00
7:53 PM,52.0,39.0,61,29.45,10.0,Calm,Calm,-,N/A,,Clear,0,2012-02-23 01:53:00
8:53 PM,52.0,39.0,61,29.43,10.0,ENE,3.5,-,N/A,,Mostly Cloudy,70,2012-02-23 02:53:00
9:53 PM,51.1,41.0,68,29.45,10.0,Calm,Calm,-,0.00,,Overcast,0,2012-02-23 03:53:00
10:53 PM,52.0,41.0,66,29.44,9.0,SSW,8.1,-,0.01,Rain,Light Rain,210,2012-02-23 04:53:00
11:53 PM,50.0,43.0,77,29.37,10.0,ESE,4.6,-,0.01,,Overcast,120,2012-02-23 05:53:00